When you browse on this site, cookies collect data to enhance your experience and personalize the content and advertising you see.
Visit our Privacy Policy to learn more. By continuing to use the site, you agree to this use of cookies and data.
  • In Österreich
  • Länderverzeichnis
  • Für 7 Tage
  • Wassertemperatur
  • Wetterkarte
  • News
  • Widgets
  • user-avatar
    Anmelden

    Stündliche Wetter Streamwood

    Heute, 8 Dezember, Sonntag

    Zeit Temperatur Niederschläge Wind Luftdruck Luftfeuchtigkeit
    00:00 -2°C° 0 mm 6 m/S 742 mmHg 60%
    01:00 -2°C° 0 mm 6 m/S 741 mmHg 63%
    02:00 -2°C° 0 mm 6 m/S 740 mmHg 67%
    03:00 -2°C° 0 mm 6 m/S 740 mmHg 70%
    04:00 -2°C° 0 mm 7 m/S 739 mmHg 78%
    05:00 -1°C° 0 mm 7 m/S 738 mmHg 85%
    06:00 -1°C° 0 mm 6 m/S 738 mmHg 82%
    07:00 -1°C° 0 mm 6 m/S 737 mmHg 84%
    08:00 +1°C° 0 mm 6 m/S 737 mmHg 85%
    09:00 +2°C° 0 mm 6 m/S 736 mmHg 87%
    10:00 +3°C° 0 mm 6 m/S 736 mmHg 83%
    11:00 +3°C° 0 mm 6 m/S 736 mmHg 79%
    12:00 +4°C° 0 mm 6 m/S 736 mmHg 75%
    13:00 +5°C° 0 mm 5 m/S 736 mmHg 76%
    14:00 +6°C° 0 mm 5 m/S 735 mmHg 77%
    15:00 +6°C° 0 mm 4 m/S 735 mmHg 78%
    16:00 +5°C° 0 mm 3 m/S 735 mmHg 80%
    17:00 +5°C° 0 mm 3 m/S 735 mmHg 83%
    18:00 +4°C° 0 mm 3 m/S 735 mmHg 85%
    19:00 +4°C° 0 mm 3 m/S 735 mmHg 85%
    20:00 +5°C° 0 mm 2 m/S 734 mmHg 86%
    21:00 +5°C° 0 mm 2 m/S 734 mmHg 86%
    22:00 +5°C° 0 mm 2 m/S 734 mmHg 89%
    23:00 +6°C° 0 mm 2 m/S 733 mmHg 92%

    Morgen, 9 Dezember, Montag

    Zeit Temperatur Niederschläge Wind Luftdruck Luftfeuchtigkeit
    00:00 +6°C° 0 mm 2 m/S 733 mmHg 95%
    01:00 +6°C° 0.1 mm 2 m/S 732 mmHg 96%
    02:00 +6°C° 0.1 mm 2 m/S 731 mmHg 96%
    03:00 +6°C° 0.1 mm 2 m/S 730 mmHg 97%
    04:00 +6°C° 0 mm 2 m/S 730 mmHg 97%
    05:00 +6°C° 0 mm 2 m/S 729 mmHg 97%
    06:00 +6°C° 0 mm 2 m/S 729 mmHg 97%
    07:00 +6°C° 0.2 mm 2 m/S 728 mmHg 97%
    08:00 +7°C° 0.2 mm 3 m/S 728 mmHg 97%
    09:00 +7°C° 0.2 mm 3 m/S 727 mmHg 97%
    10:00 +7°C° 0.2 mm 3 m/S 727 mmHg 97%
    11:00 +7°C° 0.2 mm 3 m/S 726 mmHg 96%
    12:00 +7°C° 0.2 mm 4 m/S 726 mmHg 95%
    13:00 +7°C° 0.1 mm 4 m/S 725 mmHg 94%
    14:00 +7°C° 0.1 mm 4 m/S 725 mmHg 93%
    15:00 +7°C° 0.1 mm 4 m/S 725 mmHg 92%
    16:00 +4°C° 0.2 mm 6 m/S 726 mmHg 90%
    17:00 0°C° 0.2 mm 7 m/S 727 mmHg 88%
    18:00 -2°C° 0.2 mm 8 m/S 728 mmHg 87%
    19:00 -4°C° 0 mm 8 m/S 730 mmHg 81%
    20:00 -5°C° 0 mm 8 m/S 731 mmHg 75%
    21:00 -6°C° 0 mm 8 m/S 732 mmHg 69%
    22:00 -7°C° 0 mm 7 m/S 734 mmHg 69%
    23:00 -7°C° 0 mm 7 m/S 735 mmHg 69%

    übermorgen, 10 Dezember, Dienstag

    Zeit Temperatur Niederschläge Wind Luftdruck Luftfeuchtigkeit
    00:00 -6°C° 0 mm 6 m/S 736 mmHg 69%
    01:00 -8°C° 0 mm 6 m/S 736 mmHg 66%
    02:00 -9°C° 0 mm 6 m/S 737 mmHg 64%
    03:00 -8°C° 0 mm 5 m/S 738 mmHg 62%
    04:00 -10°C° 0 mm 5 m/S 739 mmHg 61%
    05:00 -10°C° 0 mm 5 m/S 740 mmHg 60%
    06:00 -11°C° 0 mm 5 m/S 740 mmHg 60%
    07:00 -11°C° 0 mm 5 m/S 741 mmHg 55%
    08:00 -11°C° 0 mm 5 m/S 742 mmHg 50%
    09:00 -10°C° 0 mm 4 m/S 743 mmHg 46%
    10:00 -9°C° 0 mm 4 m/S 743 mmHg 41%
    11:00 -9°C° 0 mm 4 m/S 743 mmHg 36%
    12:00 -8°C° 0 mm 4 m/S 743 mmHg 31%
    13:00 -8°C° 0 mm 4 m/S 744 mmHg 30%
    14:00 -8°C° 0 mm 4 m/S 744 mmHg 28%
    15:00 -8°C° 0 mm 5 m/S 744 mmHg 27%
    16:00 -8°C° 0 mm 4 m/S 744 mmHg 30%
    17:00 -9°C° 0 mm 4 m/S 745 mmHg 34%
    18:00 -9°C° 0 mm 4 m/S 745 mmHg 37%
    19:00 -10°C° 0 mm 4 m/S 745 mmHg 41%
    20:00 -10°C° 0 mm 4 m/S 746 mmHg 45%
    21:00 -10°C° 0 mm 4 m/S 746 mmHg 48%
    22:00 -11°C° 0 mm 4 m/S 746 mmHg 50%
    23:00 -11°C° 0 mm 4 m/S 746 mmHg 52%

    11 Dezember, Mittwoch

    Zeit Temperatur Niederschläge Wind Luftdruck Luftfeuchtigkeit
    00:00 -10°C° 0 mm 3 m/S 746 mmHg 54%
    01:00 -12°C° 0 mm 4 m/S 746 mmHg 53%
    02:00 -12°C° 0 mm 4 m/S 746 mmHg 53%
    03:00 -14°C° 0 mm 4 m/S 747 mmHg 52%
    04:00 -14°C° 0 mm 4 m/S 747 mmHg 51%
    05:00 -13°C° 0 mm 3 m/S 748 mmHg 50%
    06:00 -13°C° 0 mm 3 m/S 748 mmHg 49%
    07:00 -13°C° 0 mm 3 m/S 749 mmHg 47%
    08:00 -13°C° 0 mm 3 m/S 750 mmHg 45%
    09:00 -13°C° 0 mm 3 m/S 750 mmHg 43%
    10:00 -12°C° 0 mm 3 m/S 751 mmHg 39%
    11:00 -10°C° 0 mm 3 m/S 751 mmHg 35%
    12:00 -8°C° 0 mm 2 m/S 752 mmHg 30%
    13:00 -8°C° 0 mm 2 m/S 752 mmHg 29%
    14:00 -7°C° 0 mm 2 m/S 752 mmHg 28%
    15:00 -6°C° 0 mm 1 m/S 752 mmHg 27%
    16:00 -6°C° 0 mm 1 m/S 752 mmHg 29%
    17:00 -6°C° 0 mm 1 m/S 752 mmHg 30%
    18:00 -7°C° 0 mm 1 m/S 753 mmHg 32%
    19:00 -6°C° 0 mm 1 m/S 753 mmHg 31%
    20:00 -6°C° 0 mm 1 m/S 753 mmHg 31%
    21:00 -6°C° 0 mm 1 m/S 753 mmHg 31%
    22:00 -7°C° 0 mm 2 m/S 753 mmHg 33%
    23:00 -7°C° 0 mm 2 m/S 753 mmHg 35%

    12 Dezember, Donnerstag

    Zeit Temperatur Niederschläge Wind Luftdruck Luftfeuchtigkeit
    00:00 -6°C° 0 mm 2 m/S 752 mmHg 37%
    01:00 -6°C° 0 mm 2 m/S 752 mmHg 39%
    02:00 -7°C° 0 mm 3 m/S 752 mmHg 41%
    03:00 -7°C° 0 mm 3 m/S 752 mmHg 43%
    04:00 -7°C° 0 mm 3 m/S 751 mmHg 45%
    05:00 -7°C° 0 mm 4 m/S 751 mmHg 48%
    06:00 -7°C° 0 mm 4 m/S 751 mmHg 50%
    07:00 -6°C° 0 mm 5 m/S 750 mmHg 54%
    08:00 -6°C° 0 mm 5 m/S 750 mmHg 59%
    09:00 -5°C° 0 mm 5 m/S 750 mmHg 63%
    10:00 -4°C° 0 mm 6 m/S 749 mmHg 63%
    11:00 -2°C° 0 mm 6 m/S 749 mmHg 63%
    12:00 -1°C° 0 mm 6 m/S 748 mmHg 62%
    13:00 -1°C° 0 mm 6 m/S 748 mmHg 62%
    14:00 -1°C° 0 mm 6 m/S 747 mmHg 62%
    15:00 +1°C° 0 mm 5 m/S 746 mmHg 62%
    16:00 0°C° 0 mm 5 m/S 746 mmHg 65%
    17:00 0°C° 0 mm 5 m/S 746 mmHg 69%
    18:00 -1°C° 0 mm 5 m/S 746 mmHg 72%
    19:00 -1°C° 0 mm 4 m/S 746 mmHg 75%
    20:00 -2°C° 0 mm 4 m/S 746 mmHg 79%
    21:00 -1°C° 0 mm 3 m/S 746 mmHg 82%
    22:00 -1°C° 0 mm 3 m/S 745 mmHg 84%
    23:00 -2°C° 0 mm 3 m/S 745 mmHg 86%

    13 Dezember, Freitag

    Zeit Temperatur Niederschläge Wind Luftdruck Luftfeuchtigkeit
    00:00 -2°C° 0 mm 3 m/S 745 mmHg 88%
    01:00 -2°C° 0 mm 3 m/S 744 mmHg 89%
    02:00 -2°C° 0 mm 3 m/S 744 mmHg 89%
    03:00 -2°C° 0 mm 3 m/S 743 mmHg 90%
    04:00 -2°C° 0 mm 2 m/S 743 mmHg 91%
    05:00 -2°C° 0 mm 2 m/S 743 mmHg 91%
    06:00 -2°C° 0 mm 2 m/S 742 mmHg 92%
    07:00 -2°C° 0 mm 2 m/S 742 mmHg 90%
    08:00 -1°C° 0 mm 2 m/S 742 mmHg 88%
    09:00 -1°C° 0 mm 2 m/S 742 mmHg 87%
    10:00 +1°C° 0 mm 2 m/S 742 mmHg 83%
    11:00 +2°C° 0 mm 2 m/S 741 mmHg 80%
    12:00 +3°C° 0 mm 2 m/S 740 mmHg 77%
    13:00 +3°C° 0 mm 2 m/S 740 mmHg 79%
    14:00 +4°C° 0 mm 1 m/S 739 mmHg 81%
    15:00 +4°C° 0 mm 1 m/S 738 mmHg 83%
    16:00 +3°C° 0 mm 1 m/S 738 mmHg 86%
    17:00 +2°C° 0 mm 1 m/S 738 mmHg 90%
    18:00 +2°C° 0 mm 1 m/S 737 mmHg 93%
    19:00 +1°C° 0 mm 1 m/S 737 mmHg 94%
    20:00 +1°C° 0 mm 1 m/S 736 mmHg 94%
    21:00 +1°C° 0 mm 1 m/S 736 mmHg 95%
    22:00 +1°C° 0 mm 1 m/S 735 mmHg 95%
    23:00 +1°C° 0 mm 1 m/S 734 mmHg 95%
    Mehr zeigen